Regional Weather Roundup
Issued by NWS Little Rock, AR

Home | Current Version | Previous Version | Text Only | Print | Product List | Glossary On
Versions: 1 2 3 4 5 6 7 8 9 10 11 12 13 14 15 16 17 18 19 20 21 22 23 24 25 26 27 28 29 30 31 32 33 34 35 36 37 38 39 40 41 42 43 44 45 46 47 48 49 50
000
ASUS44 KLZK 292205
RWRLZK

WEATHER ROUNDUP FOR ARKANSAS
NATIONAL WEATHER SERVICE LITTLE ROCK AR
500 PM CDT WED JUL 29 2015

NOTE: "FAIR" INDICATES FEW OR NO CLOUDS BELOW 12,000 FEET WITH NO
SIGNIFICANT WEATHER AND/OR OBSTRUCTIONS TO VISIBILITY.

ARZ001-003-010-029-292300-
NORTHWEST ARKANSAS

CITY           SKY/WX    TMP DP  RH WIND       PRES   REMARKS
FAYETTEVILLE   SUNNY     92  71  50 W6        30.06F HX  98
FORT SMITH     SUNNY     96  67  38 NE9       29.99F HX 100
HARRISON       SUNNY     93  70  46 N6        30.06F HX  99
BENTONVILLE    SUNNY     93  68  43 SW5       30.08F HX  97
ROGERS         SUNNY     94  70  45 W3        30.07F HX 100
SILOAM SPGS    MOSUNNY   93  70  46 CALM      30.05F HX  99
HIGHFILL       SUNNY     93  72  50 W3        30.06F HX 101
SPRINGDALE     PTSUNNY   93  70  46 CALM      30.08F HX  99
$$

ARZ004-005-016-292300-
NORTH CENTRAL ARKANSAS

CITY           SKY/WX    TMP DP  RH WIND       PRES   REMARKS
BATESVILLE     SUNNY     95  73  49 W5        29.99S HX 105
FLIPPIN        MOSUNNY   95  70  43 W7        30.01S HX 101
MTN HOME       SUNNY     92  73  53 VRB3      30.02F HX 100
$$

ARZ040-041-292300-
WEST CENTRAL ARKANSAS

CITY           SKY/WX    TMP DP  RH WIND       PRES   REMARKS
MENA           SUNNY    100  63  28 CALM      30.02F HX 102
MOUNT IDA      SUNNY    100  65  31 CALM      29.98F HX 103
$$

ARZ009-017-025-026-028-292300-
NORTHEAST ARKANSAS

CITY           SKY/WX    TMP DP  RH WIND       PRES   REMARKS
JONESBORO      SUNNY     95  77  55 NW5       29.96S HX 109
NEWPORT        SUNNY     98  75  47 W8        29.98S HX 110
WALNUT RIDGE   SUNNY     97  73  46 W10       29.95S HX 107
BLYTHEVILLE    SUNNY     95  80  61 NW7       29.96S HX 114
$$

ARZ022-023-033-042-044-292300-
CENTRAL ARKANSAS

CITY           SKY/WX    TMP DP  RH WIND       PRES   REMARKS
LITTLE ROCK    MOSUNNY   98  69  38 SE5       29.96F HX 104
N LITTLE ROCK  MOSUNNY   96  72  45 N5        29.96F HX 105
JACKSONVILLE   MOSUNNY   99  71  40 E6        29.97F HX 107
SEARCY         SUNNY     97  75  49 N7        29.98F HX 109
HOT SPRINGS    SUNNY    100  68  35 VRB6      29.98F HX 105
RUSSELLVILLE   SUNNY     97  66  36 S7        29.98F HX 100
CLINTON        LGT RAIN  97  73  46 W5        30.01S HX 107
$$

ARZ036-292300-
EAST ARKANSAS

CITY           SKY/WX    TMP DP  RH WIND       PRES   REMARKS
WEST MEMPHIS   SUNNY     93  77  59 W3        29.96S HX 107
$$

ARZ050-053-066-070-073-292300-
SOUTHWEST ARKANSAS

CITY           SKY/WX    TMP DP  RH WIND       PRES   REMARKS
ARKADELPHIA    FAIR     102  71  36 S3        29.97F HX 110
CAMDEN         SUNNY    100  64  30 CALM      29.97F HX 103
TEXARKANA      MOSUNNY   96  68  39 E5        29.99F HX 101
EL DORADO      PTSUNNY   99  68  36 VRB3      29.98F HX 104
DE QUEEN       SUNNY     98  69  38 S7        29.96F HX 104
$$

ARZ056-057-069-292300-
SOUTHEAST ARKANSAS

CITY           SKY/WX    TMP DP  RH WIND       PRES   REMARKS
PINE BLUFF     SUNNY     98  69  38 VRB3      29.97F HX 104
STUTTGART      SUNNY    100  72  39 NW7       29.97S HX 109
MONTICELLO     SUNNY     99  72  41 NE5       29.97F HX 108

$$




USA.gov is the U.S. government's official web portal to all federal, state and local government web resources and services.